Date String (YYYY-MM-DD hh:mm:ss) UTC,Instrument flags,Ambient pressure (hPa),Sample flow (lpm),Bypass flow (lpm),Sample temperature (°C),Ambient temperature (°C),ASC tube jacket temperature (°C),LED temperature (°C),Box temperature (°C),Sample RH (%),Span deviation,Mass concentration (μg/m³),Mass concentration (μg/m³),Mass concentration (μg/m³)
DateTimeUTC,F1_M11,P_M11,Q1_M11,Q2_M11,T1_M11,T2_M11,T3_M11,T4_M11,T5_M11,U1_M11,ZSPAN_M11,X0_M11,X2_M11,X1_M11
2022-10-04 08:00:00,,0829.8,4.99,0.00,29.9,28.4,00.0,38.7,31.7,21.8,0000.0,0002.76,0001.98,0001.73
2022-10-04 08:01:00,,0829.9,4.99,0.00,29.9,28.3,00.0,38.7,31.7,21.8,0000.0,0002.72,0001.96,0001.72
2022-10-04 08:02:00,,0829.8,5.01,0.00,29.9,28.3,00.0,38.7,31.7,21.8,0000.0,0002.70,0001.95,0001.72
2022-10-04 08:03:00,,0829.8,4.99,0.00,29.9,28.3,00.0,38.7,31.7,21.8,0000.0,0002.67,0001.93,0001.72
2022-10-04 08:04:00,,0829.8,5.01,0.00,29.9,28.3,00.0,38.7,31.7,21.8,0000.0,0002.67,0001.94,0001.73
2022-10-04 08:05:00,,0829.9,5.00,0.00,29.9,28.3,00.0,38.7,31.7,21.8,0000.0,0002.71,0001.93,0001.73
2022-10-04 08:06:00,,0829.8,4.99,0.00,29.9,28.3,00.0,38.7,31.7,21.8,0000.0,0002.73,0001.94,0001.73
2022-10-04 08:07:00,,0829.8,5.01,0.00,29.9,28.3,00.0,38.7,31.7,21.8,0000.0,0002.68,0001.94,0001.73
2022-10-04 08:08:00,,0829.8,4.99,0.00,29.9,28.3,00.0,38.7,31.7,21.8,0000.0,0002.76,0001.97,0001.73
2022-10-04 08:09:00,,0829.9,5.00,0.00,29.9,28.3,00.0,38.7,31.7,21.7,0000.0,0002.76,0001.98,0001.73
2022-10-04 08:10:00,,0829.8,4.99,0.00,29.9,28.3,00.0,38.7,31.7,21.7,0000.0,0002.89,0002.00,0001.74
2022-10-04 08:11:00,,0830.0,5.00,0.00,29.9,28.3,00.0,38.7,31.7,21.7,0000.0,0002.85,0001.98,0001.74
2022-10-04 08:12:00,,0829.9,5.00,0.00,29.9,28.3,00.0,38.7,31.7,21.8,0000.0,0002.78,0001.97,0001.74
2022-10-04 08:13:00,,0829.8,5.00,0.00,29.9,28.3,00.0,38.7,31.7,21.7,0000.0,0002.78,0001.97,0001.74
2022-10-04 08:14:00,,0829.8,5.01,0.00,29.9,28.3,00.0,38.7,31.7,21.7,0000.0,0002.79,0001.98,0001.74
2022-10-04 08:15:00,,0829.8,4.99,0.00,29.9,28.3,00.0,38.6,31.7,21.7,0000.0,0002.82,0001.99,0001.74
2022-10-04 08:16:00,,0829.8,5.01,0.00,29.9,28.3,00.0,38.6,31.7,21.8,0000.0,0002.77,0002.00,0001.74
2022-10-04 08:17:00,,0829.8,4.99,0.00,29.9,28.3,00.0,38.6,31.7,21.8,0000.0,0002.79,0002.00,0001.74
2022-10-04 08:18:00,,0829.9,5.01,0.00,29.8,28.3,00.0,38.6,31.7,21.8,0000.0,0002.79,0002.00,0001.74
2022-10-04 08:19:00,,0829.8,5.01,0.00,29.9,28.3,00.0,38.6,31.7,21.7,0000.0,0002.70,0001.96,0001.73
2022-10-04 08:20:00,,0829.8,5.00,0.00,29.8,28.3,00.0,38.6,31.7,21.7,0000.0,0002.71,0001.96,0001.72
2022-10-04 08:21:00,,0829.9,5.01,0.00,29.9,28.3,00.0,38.6,31.7,21.7,0000.0,0002.58,0001.93,0001.70
2022-10-04 08:22:00,,0829.9,4.98,0.00,29.9,28.3,00.0,38.6,31.7,21.7,0000.0,0002.59,0001.93,0001.70
2022-10-04 08:23:00,,0829.9,5.01,0.00,29.8,28.3,00.0,38.6,31.7,21.7,0000.0,0002.59,0001.93,0001.70
2022-10-04 08:24:00,,0829.9,4.98,0.00,29.9,28.3,00.0,38.6,31.7,21.7,0000.0,0002.63,0001.94,0001.69
2022-10-04 08:25:00,,0829.9,5.01,0.00,29.9,28.3,00.0,38.6,31.7,21.7,0000.0,0002.71,0001.98,0001.70
2022-10-04 08:26:00,,0829.9,4.99,0.00,29.9,28.4,00.0,38.6,31.7,21.7,0000.0,0002.83,0001.98,0001.69
2022-10-04 08:27:00,,0829.9,5.01,0.00,29.9,28.4,00.0,38.6,31.7,21.7,0000.0,0002.88,0001.99,0001.68
2022-10-04 08:28:00,,0829.9,5.01,0.00,29.9,28.4,00.0,38.6,31.7,21.7,0000.0,0002.89,0001.98,0001.67
2022-10-04 08:29:00,,0829.9,5.00,0.00,29.9,28.3,00.0,38.6,31.7,21.7,0000.0,0002.85,0001.96,0001.66
2022-10-04 08:30:00,,0829.8,5.01,0.00,29.9,28.3,00.0,38.6,31.7,21.6,0000.0,0003.01,0001.99,0001.66
2022-10-04 08:31:00,,0829.8,4.99,0.00,29.9,28.3,00.0,38.6,31.7,21.5,0000.0,0003.01,0001.98,0001.66
2022-10-04 08:32:00,,0829.9,5.00,0.00,29.9,28.4,00.0,38.6,31.7,21.5,0000.0,0003.06,0001.99,0001.66
2022-10-04 08:33:00,,0829.9,5.00,0.00,29.9,28.3,00.0,38.6,31.7,21.5,0000.0,0003.26,0002.02,0001.66
2022-10-04 08:34:00,,0829.9,4.99,0.00,29.9,28.3,00.0,38.6,31.7,21.5,0000.0,0003.26,0002.02,0001.66
2022-10-04 08:35:00,,0829.9,5.01,0.00,29.9,28.3,00.0,38.6,31.7,21.5,0000.0,0003.23,0002.02,0001.66
2022-10-04 08:36:00,,0829.8,5.00,0.00,29.9,28.3,00.0,38.6,31.7,21.4,0000.0,0003.20,0001.99,0001.67
2022-10-04 08:37:00,,0829.8,5.01,0.00,29.9,28.3,00.0,38.6,31.7,21.3,0000.0,0003.15,0001.98,0001.67
2022-10-04 08:38:00,,0829.8,4.99,0.00,29.9,28.3,00.0,38.6,31.7,21.3,0000.0,0003.00,0001.94,0001.67
2022-10-04 08:39:00,,0829.8,5.00,0.00,29.9,28.3,00.0,38.6,31.7,21.2,0000.0,0003.03,0001.97,0001.68
2022-10-04 08:40:00,,0829.8,5.00,0.00,29.9,28.4,00.0,38.6,31.7,21.2,0000.0,0003.03,0001.98,0001.69
2022-10-04 08:41:00,,0829.8,5.00,0.00,29.9,28.4,00.0,38.6,31.7,21.2,0000.0,0002.93,0001.98,0001.70
2022-10-04 08:42:00,,0829.8,5.00,0.00,29.9,28.4,00.0,38.6,31.7,21.3,0000.0,0002.91,0001.98,0001.70
2022-10-04 08:43:00,,0829.8,5.00,0.00,29.9,28.4,00.0,38.6,31.7,21.3,0000.0,0002.88,0001.99,0001.71
2022-10-04 08:44:00,,0829.8,5.00,0.00,29.9,28.4,00.0,38.6,31.7,21.3,0000.0,0002.70,0001.97,0001.71
2022-10-04 08:45:00,,0829.7,5.00,0.00,29.9,28.4,00.0,38.6,31.7,21.3,0000.0,0002.66,0001.96,0001.72
2022-10-04 08:46:00,,0829.8,5.01,0.00,29.9,28.4,00.0,38.6,31.7,21.3,0000.0,0002.68,0001.97,0001.74
2022-10-04 08:47:00,,0829.8,5.01,0.00,29.9,28.4,00.0,38.6,31.7,21.3,0000.0,0002.63,0001.98,0001.75
2022-10-04 08:48:00,,0829.7,4.99,0.00,29.9,28.4,00.0,38.6,31.7,21.3,0000.0,0002.56,0001.97,0001.78
2022-10-04 08:49:00,,0829.8,5.00,0.00,29.9,28.4,00.0,38.6,31.7,21.2,0000.0,0002.69,0002.04,0001.81
2022-10-04 08:50:00,,0829.8,5.01,0.00,29.9,28.3,00.0,38.7,31.7,21.2,0000.0,0002.68,0002.05,0001.82
2022-10-04 08:51:00,,0829.8,4.99,0.00,29.9,28.4,00.0,38.7,31.7,21.3,0000.0,0002.68,0002.05,0001.83
2022-10-04 08:52:00,,0829.8,5.00,0.00,29.9,28.4,00.0,38.6,31.7,21.3,0000.0,0002.71,0002.06,0001.84
2022-10-04 08:53:00,,0829.8,5.01,0.00,29.9,28.3,00.0,38.6,31.7,21.2,0000.0,0002.74,0002.07,0001.84
2022-10-04 08:54:00,,0829.8,4.99,0.00,29.9,28.3,00.0,38.7,31.7,21.1,0000.0,0002.79,0002.10,0001.85
2022-10-04 08:55:00,,0829.7,5.00,0.00,29.9,28.3,00.0,38.7,31.7,21.1,0000.0,0002.83,0002.11,0001.86
2022-10-04 08:56:00,,0829.7,5.00,0.00,29.9,28.3,00.0,38.6,31.7,21.1,0000.0,0002.82,0002.11,0001.85
2022-10-04 08:57:00,,0829.7,5.00,0.00,29.9,28.3,00.0,38.6,31.7,21.0,0000.0,0002.75,0002.07,0001.83
2022-10-04 08:58:00,,0829.7,4.99,0.00,29.9,28.3,00.0,38.6,31.7,20.8,0000.0,0002.76,0002.07,0001.81
2022-10-04 08:59:00,,0829.8,5.01,0.00,29.8,28.2,00.0,38.6,31.7,20.7,0000.0,0002.79,0002.08,0001.80
